Regional Weather Roundup
Issued by NWS Boston, MA

Current Version | Previous Version | Text Only | Print | Product List | Glossary Off
Versions: 1 2 3 4 5 6 7 8 9 10 11 12 13 14 15 16 17 18 19 20 21 22 23 24 25 26 27 28 29 30 31 32 33 34 35 36 37 38 39 40 41 42 43 44 45 46 47 48 49 50
106 ASUS41 KBOX 222010 RWRBOX REGIONAL WEATHER ROUNDUP NATIONAL WEATHER SERVICE TAUNTON MA 400 PM EDT SAT JUL 22 2017 NOTE: "FAIR" INDICATES FEW OR NO CLOUDS BELOW 12,000 FEET WITH NO SIGNIFICANT WEATHER AND/OR OBSTRUCTIONS TO VISIBILITY. MAZALL-222100- EASTERN MASSACHUSETTS CITY SKY/WX TMP DP RH WIND PRES REMARKS BOSTON CLOUDY 77 62 59 E9 29.80F BEVERLY PTSUNNY 81 65 58 SE9 29.80F LAWRENCE CLOUDY 85 61 44 SW8 29.82F BEDFORD CLOUDY 82 61 48 NW6 29.80F BLUE HILL N/A 82 59 45 SW8 29.82F NORWOOD CLOUDY 84 64 50 S7 29.79F MARSHFIELD CLOUDY 79 66 65 VRB5 29.80F PLYMOUTH CLOUDY 81 63 54 S8 29.82F TAUNTON CLOUDY 83 63 50 S6 29.80F NEW BEDFORD MOSUNNY 79 65 62 S8 29.81F $$ MAZALL-222100- CAPE COD AND THE ISLANDS CITY SKY/WX TMP DP RH WIND PRES REMARKS FALMOUTH CLOUDY 77 64 65 S6 29.84S HYANNIS CLOUDY 77 67 71 S6 29.81F CHATHAM CLOUDY 77 67 71 S3 29.84F PROVINCETOWN CLOUDY 80 64 58 SW8 29.82 NANTUCKET PTSUNNY 74 65 73 S6 29.83F MARTHAS VNYRD MOSUNNY 79 65 62 S5 29.83F $$ MAZALL-222100- CENTRAL AND WESTERN MASSACHUSETTS CITY SKY/WX TMP DP RH WIND PRES REMARKS WORCESTER CLOUDY 79 61 53 S6 29.85F FITCHBURG PTSUNNY 84 62 47 VRB7 29.83F ORANGE CLOUDY 80 64 58 W5 29.84S SPRINGFIELD PTSUNNY 82 65 54 SW7 29.81F WESTFIELD MOSUNNY 82 67 60 S7 29.82F NORTH ADAMS CLOUDY 74 64 71 VRB3 29.85F PITTSFIELD CLOUDY 75 56 51 W6 29.87F $$ RIZALL-222100- RHODE ISLAND CITY SKY/WX TMP DP RH WIND PRES REMARKS PROVIDENCE CLOUDY 81 64 56 S13 29.82F NEWPORT CLOUDY 79 66 64 S8 29.83F BLOCK ISLAND CLOUDY 79 60 52 CALM 29.83F WESTERLY CLOUDY 82 59 45 SE7 29.83F $$ CTZALL-222100- CONNECTICUT CITY SKY/WX TMP DP RH WIND PRES REMARKS BRADLEY INTL CLOUDY 83 64 52 S6 29.82F HARTFORD CLOUDY 87 62 43 SW7 29.80F BRIDGEPORT CLOUDY 84 58 40 S5 29.81F DANBURY MOSUNNY 83 60 45 SW6 29.84F GROTON CLOUDY 79 62 56 S3 29.82F NEW HAVEN PTSUNNY 84 61 45 CALM 29.82F CHESTER FAIR 82 61 47 SE3 29.83F MERIDEN CLOUDY 84 65 52 CALM 29.81F WILLIMANTIC CLOUDY 85 65 51 SW6 29.82F OXFORD PTSUNNY 82 61 47 VRB5 29.86F $$ MEZ002-015-021-024-NHZ003-005-008-011-012-014-VTZ005-008-222100- NORTHERN NEW ENGLAND CITY SKY/WX TMP DP RH WIND PRES REMARKS PORTLAND ME MOSUNNY 82 59 45 N6 29.78S BANGOR ME PTSUNNY 80 54 40 NW6G20 29.76F CONCORD NH CLOUDY 85 59 41 SW9 29.80F MANCHESTER NH CLOUDY 83 58 42 SW7 29.80F NASHUA NH SUNNY 82 63 51 MISG N/A PORTSMOUTH NH PTSUNNY 84 60 44 SW7 29.78F JAFFREY NH CLOUDY 80 61 52 W7 29.86F KEENE NH PTSUNNY 80 64 58 VRB3 29.83F BURLINGTON VT PTSUNNY 81 60 48 N9 29.82F MT. WASHINGTON PTSUNNY 52 46 82 W37G48 N/A $$ NYZ052-076-222100- EASTERN NEW YORK CITY SKY/WX TMP DP RH WIND PRES REMARKS ALBANY LGT RAIN 76 66 71 N5 29.84F NEW YORK CITY CLOUDY 88 65 46 NE10 29.79F HX 90 $$ ANZALL-222100- MARINE OBSERVATIONS STATION/POSITION TIME TEMP WIND PRES VSBY WAVE AIR SEA DIR/SP/G HT/PER (UTC) (F) (DEG/KT/KT) (MB) (MI) (FT/S) BOSTON BUOY 1950 74 72 130/ 6/ 8 1009.2F 1/ 9 BUZZARDS BAY 1900 74 200/ 4/ 5 1010.7F NANTUCKET SOUND 1950 71 1009.8F 1 MASS BAY-STELLWA 1904 71 65 160/ 4/ 4 1009.4F 1 ISLE OF SHOALS 1900 76 190/ 8/ 9 1009.4F S OF BLOCK IS 1955 77 N/A 2/ 9 $$ ......................KEY......................... SKY/WX - SKY CONDITION/PRESENT WEATHER TMP - TEMPERATURE IN FAHRENHEIT DWPT - DEWPOINT IN FAHRENHEIT RH - RELATIVE HUMIDITY IN PERCENT WIND - DIRECTION AND SPEED IN MPH PRES - MEAN SEA LEVEL PRESSURE IN INCHES OF HG WCI - WIND CHILL INDEX VSB - VISIBILITY IN MILES HX - HEAT INDEX TC - TEMPERATURE IN CELSIUS VRB - VARIABLE WIND DIRECTION N/A - NOT AVAILABLE

USA.gov is the U.S. government's official web portal to all federal, state and local government web resources and services.